www.pogodaiklimat.ru

Погода и климат >> Архив погоды >> Франция >> Монтобан


ПОГОДА в Монтобане

  • Прогноз погоды в Монтобане
  • Монитор погоды в Монтобане

АРХИВ ПОГОДЫ в Монтобане

Время (UTC), дата Ветер
(напр.,м/с)
 
Видим.   Явления Облачность Т
(С)
Тd
(С)
f
(%)
Тe
(С)
Тes
(С)
Комфортность P
(гПа)
Po
(гПа)
Тmin
(С)
Tmax
(С)
R
(мм)
R24
(мм)
S
(см)
22 10.06 З 2 20 км н/о +14.6 +9.6 72 +14 +14 1016.6 1003.8
23 10.06 СЗ 1 19 км слаб. дождь н/о +13.1 +10.3 83 +13 +13 1016.4 1003.6 0.2
00 11.06 З 1
{4}
20 км слаб. дождь н/о +12.6 +10.5 87 +13 +13 1015.9 1003.1 0.6 0
01 11.06 З 1 18 км слаб. дождь н/о +12.3 +10.4 88 +13 +13 1015.3 1002.5 0.2
02 11.06 З 1 16 км слаб. дождь н/о +11.9 +10.3 90 +12 +12 1015.0 1002.2 0.8
03 11.06 СЗ 1
{4}
17 км слаб. дождь н/о +11.6 +10.5 93 +12 +12 1014.5 1001.6 2 0
04 11.06 З 1 20 км слаб. дождь н/о +11.6 +10.3 92 +12 +12 1014.2 1001.3 0.4
05 11.06 З 1 20 км н/о +11.8 +10.4 91 +12 +12 1014.0 1001.2 0.2
06 11.06 ЮЗ 1
{4}
20 км н/о +12.3 +10.4 88 +12 +12 1014.1 1001.3 +11.5 +17.3 3 0
07 11.06 З 2 16 км н/о +12.0 +9.9 87 +11 +11 1014.3 1001.5
08 11.06 СЗ 1 20 км н/о +12.5 +9.5 82 +13 +13 1014.3 1001.5
09 11.06 З 1
{5}
20 км н/о +13.7 +9.1 74 +14 +14 1014.2 1001.4 0
10 11.06 ЮЗ 1 20 км н/о +14.7 +8.9 68 +15 +15 1014.2 1001.5
11 11.06 ЮЗ 2 20 км н/о +15.4 +10.2 71 +16 +16 1013.8 1001.1
12 11.06 З 2
{5}
19 км слаб. дождь н/о +14.9 +9.9 72 +15 +15 1013.8 1001.1 0.0 0
13 11.06 СЗ 2 8000 м сильн. дождь н/о +13.5 +9.2 75 +13 +13 1013.8 1001.0 6
14 11.06 СЗ 2 20 км н/о +17.4 +9.3 59 +18 +18 1013.0 1000.4 0.4
15 11.06 СЗ 5
{13}
20 км н/о +17.1 +8.8 58 +17 +17 1013.2 1000.6 6 0
16 11.06 ЮЗ 2 20 км н/о +16.9 +9.1 60 +17 +17 1013.3 1000.7
17 11.06 З 3 20 км н/о +16.1 +8.1 59 +16 +16 1013.6 1000.9
18 11.06 З 2
{8}
20 км н/о +15.8 +8.8 63 +16 +16 1013.7 1001.0 +11.8 +18.4 0.0 0
19 11.06 З 3 12 км слаб. дождь н/о +13.0 +10.2 83 +12 +12 1014.7 1001.9 1
20 11.06 ЮЗ 1 20 км н/о +12.6 +10.7 88 +13 +13 1014.7 1001.9 0.2
21 11.06 ЮЗ 1
{5}
20 км н/о +12.6 +10.3 86 +13 +13 1015.1 1002.3 1 0
22 11.06 ЮЗ 1 20 км н/о +12.0 +10.1 88 +12 +12 1015.1 1002.3
23 11.06 ЮЗ 1 20 км н/о +11.4 +9.3 87 +11 +11 1014.9 1002.0
00 12.06 ЮЗ 1
{5}
20 км н/о +11.2 +9.1 87 +11 +11 1014.5 1001.6 0
01 12.06 ЮЗ 1 20 км н/о +11.5 +8.9 84 +11 +11 1014.2 1001.3
02 12.06 ЮЗ 1 20 км н/о +11.5 +8.7 83 +11 +11 1013.8 1000.9
03 12.06 ЮЗ 1
{4}
20 км н/о +11.1 +8.3 83 +11 +11 1013.6 1000.7 0
04 12.06 ЮЗ 2 20 км н/о +11.2 +7.9 80 +10 +10 1013.7 1000.8
05 12.06 Ю 2 20 км н/о +10.9 +8.1 83 +10 +10 1014.1 1001.2
06 12.06 Ю 2
{7}
20 км н/о +11.2 +7.9 80 +10 +10 1014.3 1001.4 +10.8 +16.1 1 0
07 12.06 ЮЗ 2 20 км н/о +13.3 +8.4 72 +13 +13 1014.5 1001.7
08 12.06 ЮЗ 2 20 км н/о +15.0 +8.5 65 +15 +15 1014.7 1002.0
09 12.06 З 3
{8}
20 км н/о +16.3 +9.0 62 +16 +16 1014.6 1001.9 0
10 12.06 З 3 20 км н/о +17.2 +7.8 54 +17 +17 1014.5 1001.9
11 12.06 З 3 20 км н/о +17.7 +7.7 52 +18 +18 1014.5 1001.9
12 12.06 З 3
{10}
20 км н/о +19.4 +9.3 52 +21 +21 комфорт 1014.1 1001.6 0
13 12.06 З 3 19 км н/о +19.6 +8.3 48 +21 +21 комфорт 1014.1 1001.6
14 12.06 З 3 20 км н/о +20.0 +8.3 47 +21 +21 комфорт 1014.3 1001.8
15 12.06 З 2
{10}
20 км н/о +20.6 +8.6 46 +23 +23 комфорт 1014.3 1001.8 0
16 12.06 СЗ 3 20 км н/о +20.4 +8.1 45 +22 +22 комфорт 1014.3 1001.8
17 12.06 З 2 20 км н/о +20.4 +7.7 44 +22 +22 комфорт 1014.2 1001.7
18 12.06 СЗ 2
{8}
20 км н/о +19.3 +7.4 46 +21 +21 комфорт 1014.7 1002.2 +11.3 +20.9 0
19 12.06 СЗ 1 20 км н/о +19.0 +7.7 48 +21 +21 комфорт 1014.7 1002.2
20 12.06 ЮВ 1 14 км н/о +16.0 +8.5 61 +17 +17 1015.0 1002.3
21 12.06 штиль 0
{3}
20 км н/о +14.0 +8.8 71 +14 +14 1015.5 1002.7 0
22 12.06 В 1 20 км н/о +12.1 +9.1 82 +13 +13 1015.6 1002.7
23 12.06 В 1 20 км н/о +11.2 +9.1 87 +12 +12 1015.4 1002.5
00 13.06 В 1
{3}
20 км н/о +10.9 +9.0 88 +11 +11 1014.8 1001.9 0
01 13.06 В 1 20 км н/о +10.3 +8.4 88 +11 +11 1014.5 1001.6
02 13.06 В 1 20 км н/о +10.1 +8.4 89 +11 +11 1014.0 1001.1
03 13.06 В 1
{3}
20 км н/о +9.4 +8.0 91 +9 +9 1013.7 1000.7 0
04 13.06 В 1 20 км н/о +9.0 +7.4 90 +9 +9 1013.3 1000.3 0.2
05 13.06 штиль 0 20 км н/о +9.9 +8.3 90 +9 +9 1013.2 1000.3
06 13.06 В 1
{2}
20 км н/о +12.7 +8.8 77 +14 +14 1012.8 1000.0 +8.9 +19.5 0.2 0
07 13.06 В 1 20 км н/о +15.5 +9.2 66 +16 +16 1012.4 999.7
08 13.06 В 1 20 км н/о +18.8 +10.6 59 +21 +21 комфорт 1011.9 999.4
09 13.06 Ю 2
{8}
20 км н/о +21.4 +10.5 50 +23 +23 комфорт 1011.8 999.4 0
10 13.06 Ю 2 20 км н/о +22.8 +11.2 48 +25 +25 комфорт 1011.6 999.3
11 13.06 Ю 3 20 км н/о +25.0 +9.3 37 +26 +26 жарко 1010.9 998.7
12 13.06 Ю 2
{9}
20 км н/о +25.6 +10.6 39 +27 +27 жарко 1010.8 998.6 0
13 13.06 Ю 2 20 км н/о +26.6 +11.1 38 +28 +28 жарко 1010.4 998.2
14 13.06 Ю 2 20 км н/о +27.2 +10.4 35 +28 +28 жарко 1009.9 997.8
15 13.06 ЮВ 1
{7}
20 км н/о +27.6 +10.8 35 +28 +28 жарко 1009.4 997.3 0
16 13.06 Ю 2 20 км н/о +28.3 +10.5 33 +29 +29 жарко 1009.1 997.0
17 13.06 ЮВ 3 20 км н/о +26.7 +10.4 36 +27 +27 жарко 1009.1 997.0
18 13.06 ЮВ 3
{9}
20 км н/о +24.9 +8.4 35 +25 +25 комфорт 1009.5 997.3 +12.7 +28.4 0
19 13.06 ЮВ 3 20 км н/о +22.7 +6.4 35 +23 +23 комфорт 1009.7 997.4
20 13.06 ЮВ 3 20 км н/о +21.3 +3.9 32 +22 +22 комфорт 1009.9 997.5
21 13.06 ЮВ 3
{11}
20 км н/о +21.1 +2.4 29 +21 +21 комфорт 1010.0 997.6 0
22 13.06 В 1 20 км н/о +20.5 +1.8 29 +22 +22 комфорт 1010.7 998.3
23 13.06 З 1 20 км н/о +18.6 +4.4 39 +20 +20 1011.7 999.2
00 14.06 ЮЗ 1
{5}
20 км н/о +17.6 +5.5 45 +19 +19 1012.1 999.5 0
01 14.06 Ю 1 20 км н/о +17.1 +8.0 55 +18 +18 1012.7 1000.1
02 14.06 ЮЗ 2 20 км н/о +16.0 +12.4 79 +16 +16 1013.1 1000.5
03 14.06 ЮЗ 2
{5}
20 км н/о +15.9 +12.6 81 +16 +16 1013.4 1000.8 0
04 14.06 ЮЗ 1 20 км н/о +15.6 +12.7 83 +16 +16 1013.5 1000.8
05 14.06 Ю 1 20 км н/о +15.3 +13.1 87 +16 +16 1013.6 1000.9
06 14.06 ЮЗ 1
{4}
19 км н/о +15.5 +13.2 86 +16 +16 1013.2 1000.5 +15.1 +24.9 0
07 14.06 Ю 1 20 км н/о +15.8 +13.5 86 +16 +16 1013.7 1001.1
08 14.06 Ю 1 20 км н/о +17.3 +12.8 75 +18 +18 1013.5 1000.9
09 14.06 ЮВ 1
{4}
20 км н/о +17.3 +12.8 75 +18 +18 1013.3 1000.7 0
10 14.06 ЮВ 1 20 км н/о +17.8 +12.0 69 +19 +19 1012.9 1000.3
11 14.06 СЗ 1 20 км н/о +20.2 +13.4 65 +24 +24 комфорт 1012.2 999.8
12 14.06 З 1
{4}
20 км н/о +19.7 +13.6 68 +23 +23 комфорт 1012.1 999.6 0
13 14.06 СЗ 1 20 км н/о +20.5 +13.2 63 +24 +24 комфорт 1011.2 998.8
14 14.06 З 1 20 км н/о +20.9 +14.3 66 +25 +25 комфорт 1011.4 999.0
15 14.06 З 3
{8}
20 км н/о +19.0 +13.6 71 +20 +20 1012.5 1000.0 0
16 14.06 З 2 20 км н/о +17.6 +12.9 74 +18 +18 1012.7 1000.1
17 14.06 СЗ 2 14 км слаб. дождь н/о +16.3 +14.7 90 +17 +17 1011.9 999.3 1
18 14.06 СЗ 2
{8}
15 км н/о +16.7 +14.9 89 +17 +17 1012.9 1000.3 +15.4 +21.0 1 0
19 14.06 З 2 19 км н/о +16.4 +14.4 88 +17 +17 1013.5 1000.9
20 14.06 СЗ 2 17 км н/о +16.3 +14.7 90 +17 +17 1014.4 1001.8
21 14.06 ЮЗ 1
{4}
19 км н/о +16.5 +14.3 87 +18 +18 1015.1 1002.5 0
22 14.06 ЮЗ 1 19 км н/о +16.6 +14.4 87 +18 +18 1015.3 1002.7
23 14.06 ЮЗ 1 16 км н/о +16.6 +14.6 88 +18 +18 1016.2 1003.6
00 15.06 штиль 0
{2}
15 км н/о +16.7 +14.9 89 +17 +17 1015.8 1003.2 0
01 15.06 З 1 12 км н/о +16.5 +14.7 89 +18 +18 1016.3 1003.7
02 15.06 ЮЗ 1 16 км н/о +16.3 +14.8 91 +17 +17 1016.9 1004.2
03 15.06 С 2
{5}
13 км слаб. дождь н/о +15.9 +14.6 92 +16 +16 1016.3 1003.6 0.2 0
04 15.06 З 1 7000 м н/о +15.8 +15.0 95 +17 +17 1016.8 1004.1 0.4
05 15.06 СЗ 1 9000 м н/о +15.7 +14.9 95 +16 +16 1017.1 1004.4 0.0
06 15.06 З 2
{4}
14 км н/о +15.5 +14.2 92 +16 +16 1017.7 1005.0 +15.5 +16.8 0.8 0
07 15.06 З 2 20 км н/о +14.6 +13.1 91 +14 +14 1018.4 1005.6
08 15.06 СЗ 2 19 км слаб. дождь н/о +14.5 +13.2 92 +14 +14 1019.1 1006.3 0.0
09 15.06 СЗ 3
{7}
15 км слаб. морось н/о +14.4 +12.9 91 +14 +14 1020.1 1007.3 0.0 0
10 15.06 СЗ 3 20 км н/о +15.4 +12.2 81 +15 +15 1020.4 1007.6 0.0
11 15.06 СЗ 3 20 км н/о +15.7 +11.7 77 +15 +15 1020.9 1008.2
12 15.06 СЗ 2
{7}
20 км н/о +16.1 +10.6 70 +16 +16 1021.1 1008.4 0.4 0
13 15.06 З 2 20 км н/о +17.4 +11.7 69 +18 +18 1021.1 1008.4 0.2
14 15.06 С 1 20 км н/о +18.2 +12.0 67 +20 +20 1021.0 1008.4
15 15.06 СЗ 1
{4}
20 км н/о +18.6 +11.9 65 +20 +20 1021.2 1008.6 0.2 0
16 15.06 С 1 20 км н/о +18.9 +12.2 65 +21 +21 комфорт 1021.2 1008.6
17 15.06 СЗ 1 20 км н/о +19.3 +12.6 65 +22 +22 комфорт 1021.3 1008.7
18 15.06 З 1
{4}
20 км н/о +20.1 +12.1 60 +23 +23 комфорт 1021.5 1008.9 +14.3 +20.1 0
19 15.06 З 1 20 км н/о +19.2 +12.5 65 +21 +21 комфорт 1021.8 1009.2
20 15.06 ЮЗ 1 5000 м н/о +17.5 +12.8 74 +19 +19 1022.3 1009.6
21 15.06 ЮЗ 1
{2}
20 км н/о +15.0 +12.3 84 +16 +16 1022.9 1010.1 0
22 15.06 З 1 20 км н/о +15.4 +12.2 81 +16 +16 1023.0 1010.2
23 15.06 ЮЗ 1 20 км н/о +13.7 +11.4 86 +15 +15 1023.1 1010.2
00 16.06 ЮЗ 1
{1}
19 км н/о +12.2 +10.8 91 +13 +13 1023.1 1010.2 0
01 16.06 штиль 0 20 км н/о +11.9 +10.6 92 +11 +11 1022.8 1009.9
02 16.06 штиль 0 20 км н/о +11.4 +10.1 92 +11 +11 1022.8 1009.8
03 16.06 штиль 0
{1}
14 км н/о +10.5 +9.4 93 +10 +10 1022.5 1009.5 0
04 16.06 штиль 0 4500 м дымка н/о +10.0 +9.2 95 +9 +9 1022.8 1009.8
05 16.06 ЮВ 1 200 м туман н/о +9.9 +9.1 95 +10 +10 1023.0 1010.0
06 16.06 В 1
{2}
2600 м дымка н/о +11.5 +10.9 96 +12 +12 1023.1 1010.1 +9.7 +20.1 0
07 16.06 В 1 15 км н/о +14.1 +12.3 89 +14 +14 1023.0 1010.2
08 16.06 СВ 1 20 км н/о +16.7 +12.8 78 +18 +18 1022.8 1010.1
09 16.06 В 1
{4}
20 км н/о +20.3 +12.3 60 +23 +23 комфорт 1022.6 1010.0 0
10 16.06 СВ 1 20 км н/о +21.3 +10.7 51 +23 +23 комфорт 1022.0 1009.5
11 16.06 С 1 20 км н/о +22.1 +10.9 49 +24 +24 комфорт 1021.5 1009.0
12 16.06 С 2
{5}
20 км н/о +23.2 +10.9 46 +25 +25 комфорт 1020.7 1008.3 0
13 16.06 СЗ 2 20 км н/о +23.9 +9.8 41 +25 +25 комфорт 1020.2 1007.8
14 16.06 С 1 20 км н/о +24.9 +10.0 39 +26 +26 жарко 1019.5 1007.2
15 16.06 СЗ 2
{5}
19 км н/о +25.2 +10.3 39 +26 +26 жарко 1018.9 1006.6 0
16 16.06 С 2 20 км н/о +25.4 +10.0 38 +26 +26 жарко 1018.3 1006.0
17 16.06 С 1 20 км н/о +25.6 +10.2 38 +26 +26 жарко 1018.0 1005.7
18 16.06 С 2
{6}
20 км н/о +25.3 +10.0 38 +26 +26 жарко 1018.0 1005.7 +11.5 +25.9 0
19 16.06 С 1 20 км н/о +24.4 +10.7 42 +26 +26 жарко 1018.0 1005.7
20 16.06 С 1 20 км н/о +22.6 +10.4 46 +24 +24 комфорт 1018.2 1005.8
21 16.06 СВ 1
{3}
20 км н/о +18.7 +11.7 64 +21 +21 комфорт 1018.7 1006.1 0
22 16.06 ЮВ 1 20 км н/о +16.2 +11.6 74 +18 +18 1018.7 1006.0
23 16.06 штиль 0 20 км н/о +15.3 +11.3 77 +15 +15 1018.5 1005.8
00 17.06 штиль 0
{1}
20 км н/о +14.4 +11.2 81 +14 +14 1018.2 1005.4 0
01 17.06 штиль 0 20 км н/о +13.2 +10.7 85 +13 +13 1018.1 1005.3
02 17.06 штиль 0 20 км н/о +12.7 +10.8 88 +12 +12 1017.9 1005.1
03 17.06 штиль 0
{1}
20 км н/о +12.1 +10.5 90 +11 +11 1017.7 1004.8 0
04 17.06 В 1 20 км н/о +11.8 +10.2 90 +12 +12 1018.0 1005.1
05 17.06 ЮВ 1 20 км н/о +13.0 +11.1 88 +14 +14 1017.9 1005.1
06 17.06 штиль 0
{2}
20 км н/о +16.0 +12.5 80 +16 +16 1018.2 1005.5 +11.5 +25.4 0.2 0
07 17.06 штиль 0 19 км н/о +19.0 +13.0 68 +20 +20 1018.1 1005.5
08 17.06 Ю 1 20 км н/о +20.9 +14.3 66 +25 +25 комфорт 1017.8 1005.3
09 17.06 ЮЗ 1
{2}
20 км н/о +23.7 +15.2 59 +27 +27 жарко 1017.2 1004.9 0
10 17.06 З 1 20 км н/о +24.8 +14.3 52 +27 +27 жарко 1017.0 1004.7
11 17.06 СВ 1 20 км н/о +26.3 +13.4 45 +28 +28 жарко 1016.5 1004.3
12 17.06 В 1
{5}
20 км н/о +27.2 +13.9 44 +29 +29 жарко 1015.9 1003.7 0
13 17.06 ЮВ 1 20 км н/о +28.0 +12.4 38 +29 +29 жарко 1015.3 1003.1
14 17.06 В 1 20 км н/о +29.2 +10.3 31 +29 +29 жарко 1014.7 1002.6
15 17.06 В 1
{5}
20 км н/о +29.5 +11.1 32 +30 +30 жарко 1014.0 1001.9 0
16 17.06 В 3
{5}
20 км н/о +29.6 +10.2 30 +30 +30 жарко 1013.4 1001.3
17 17.06 В 2 20 км н/о +29.7 +10.3 30 +30 +30 жарко 1012.9 1000.8
18 17.06 В 1
{5}
20 км н/о +29.5 +10.1 30 +30 +30 жарко 1012.8 1000.7 +16.0 +30.0 0
19 17.06 В 1 20 км н/о +28.5 +9.7 31 +29 +29 жарко 1012.9 1000.8
20 17.06 ЮВ 1 9000 м н/о +22.9 +13.9 57 +26 +26 жарко 1013.2 1000.9

 

Местоположение метеостанции Монтобан (Франция): широта 44.03 долгота 1.38 высота над уровнем моря 108 м.

В архиве по умолчанию представлена погода в Монтобане за последнюю неделю. Архивные данные за месяц целиком и за предыдущие месяцы, начиная с января 2011 года, Вы можете получить, выбрав интересующий диапазон дат из раскрывающегося списка и нажав кнопку "Ввод!".


*Определитесь, кто Вы:
робот инопланетянин человек

Внимание! Время в таблицах - всемирное. Для получения местного времени необходимо прибавить поправку, которая равна 1 ч.

Смотрите также архив погоды в соседних городах и на ближайших метеорологических станциях:

Погода в Тулузе (Франция) (44 км)
Погода в Тулуза аэропорту (Франция) (56 км)
Погода в Альби (Франция) (60 км)
Погода в Ажане (Франция) (64 км)
Погода в Мюре-Лерм (Франция) (65 км)
Погода в Оше (Франция) (74 км)
Погода в Гурдоне (Франция) (80 км)
Погода в Родесе (Франция) (97 км)
Погода в Бержераке (Франция) (111 км)
Погода в Брив-Суйяк (Франция) (113 км)

Пояснения к столбцам:

Ветер - указаны скорость ветра в м/с - средняя за 10 мин, порывы в срок и между сроками (в фигурных скобках) и направление, откуда дует ветер: С - северный, СВ - северо-восточный, В - восточный, ЮВ - юго-восточный, Ю - южный, ЮЗ - юго-западный, З - западный, СЗ - северо-западный.
Видимость - горизонтальная дальность видимости в метрах или километрах. При видимости от 1 до 10 км при отсутствии осадков обычно наблюдается дымка, при ухудшении видимости до 1 км и менее - туман. В сухую погоду видимость может ухудшаться дымом, пылью или мглою.
Явления - указаны атмосферные явления, наблюдавшиеся в срок или в последний час перед сроком; фигурными скобками обозначены явления, наблюдавшиеся между сроками (за 1-3 часа до срока); квадратными скобками обозначены град или гололедные отложения с указанием их диаметра в мм.
Облачность - указаны через наклонную черту общая и нижняя облачность в баллах и высота нижней границы облаков в метрах; квадратными скобками обозначены формы облаков: Ci - перистые, Cs - перисто-слоистые, Cc - перисто-кучевые, Ac - высококучевые, As - высокослоистые, Sc - слоисто-кучевые, Ns - слоисто-дождевые, Cu - кучевые, Cb - кучево-дождевые. Подробнее классификацию облаков см. в Атласе облаков (PDF).
T - Температура воздуха - температура, измеренная на высоте 2 м над землей.
Td - Температура точки росы - температура, при понижении до которой содержащийся в воздухе водяной пар достигнет насыщения.
f - Относительная влажность воздуха - влажноcть воздуха, измеренная на высоте 2 м над землей.
Te - Эффективная температура - температура, которую ощущает одетый по сезону человек в тени. Характеристика душности погоды. При расчете учитывается влияние влажности воздуха и скорости ветра на теплоощущения человека.
Tes - Эффективная температура на солнце - температура, которую ощущает человек, с поправкой на солнечный нагрев. Характеристика знойности погоды. Зависит от высоты солнца над горизонтом, облачности и скорости ветра. Ночью, в пасмурную погоду, а также при ветре 12 м/с и более поправка равна нулю.
P - Атмосферное давление - приведенное к уровню моря атмосферное давление.
Po - Атмосферное давление - измеренное на уровне метеостанции атмосферное давление.
Tmin - Минимальная температура - минимум температуры воздуха на высоте 2 м над землей.
Tmax - Максимальная температура - максимум температуры воздуха на высоте 2 м над землей.
R - Количество осадков - Количество выпавших осадков за период времени, мм. При наведении курсора мыши на число - период времени, за который выпало указанное количество осадков.
R24 - Количество осадков - Количество выпавших осадков за 24 часа, мм.
S - Снежный покров - Высота снежного покрова, см. При наведении курсора мыши на число - состояние снежного покрова и степень покрытия местности в баллах.